Regional Weather Roundup
Issued by NWS

Home | Current Version | Previous Version | Graphics & Text | Print | Product List | Glossary On
Versions: 1 2 3 4 5 6 7 8 9 10 11 12 13 14 15 16 17 18 19 20 21 22 23 24 25 26 27 28 29 30 31 32 33 34 35 36 37 38 39 40 41 42 43 44 45 46 47 48 49 50
000
ASUS43 KBIS 020202
RWRND

NORTH DAKOTA REGIONAL WEATHER ROUNDUP
NATIONAL WEATHER SERVICE BISMARCK ND
900 PM CDT MON JUN 01 2015

NOTE: "FAIR" INDICATES FEW OR NO CLOUDS BELOW 12,000 FEET WITH NO
SIGNIFICANT WEATHER AND/OR OBSTRUCTIONS TO VISIBILITY.


NDZ001>003-009>011-017-020300-
NORTHWEST NORTH DAKOTA

CITY           SKY/WX    TMP DP  RH WIND       PRES   REMARKS
WILLISTON      PTCLDY    81  56  42 NE8       29.75R
MINOT          CLOUDY    72  60  66 SW14G24   29.76R
MINOT AFB      CLOUDY    76  65  70 NW5       29.76R
$$

NDZ018>021-031>035-040>046-020300-
SOUTHWEST NORTH DAKOTA

CITY           SKY/WX    TMP DP  RH WIND       PRES   REMARKS
BISMARCK       CLEAR     74  62  66 SE8       29.78F
DICKINSON      MOCLDY    76  61  59 S10       29.76F
GARRISON         N/A     71  55  56 N28G43    29.81R
HETTINGER ARPT CLOUDY    74  61  63 SE9       29.81S
$$

NDZ004>008-012>016-024-026-027-054-020300-
NORTHEAST NORTH DAKOTA

CITY           SKY/WX    TMP DP  RH WIND       PRES   REMARKS
GRAND FORKS    PTCLDY    71  47  42 S17G26    29.88F
GRND FRKS AFB  PTCLDY    70  49  46 S16       29.87F
DEVILS LAKE    CLOUDY    73  55  53 S8        29.81S
$$

NDZ022-023-025-028>030-036>039-047>053-020300-
SOUTHEAST NORTH DAKOTA

CITY           SKY/WX    TMP DP  RH WIND       PRES   REMARKS
FARGO          CLEAR     71  47  42 SE17G25   29.90F
JAMESTOWN      MOCLDY    73  59  61 S10       29.83F
$$



USA.gov is the U.S. government's official web portal to all federal, state and local government web resources and services.